TimeCST,TemperatureF,Dew PointF,Humidity,Sea Level PressureIn,VisibilityMPH,Wind Direction,Wind SpeedMPH,Gust SpeedMPH,PrecipitationIn,Events,Conditions,WindDirDegrees,DateUTC
12:15 AM,69.4,65.8,88,29.85,10.0,Calm,Calm,-,N/A,,Overcast,0,2013-01-09 06:15:00
12:35 AM,68.4,65.5,90,29.85,7.0,Calm,Calm,-,N/A,,Overcast,0,2013-01-09 06:35:00
1:15 AM,68.9,65.5,89,29.84,10.0,SE,3.5,-,N/A,,Overcast,140,2013-01-09 07:15:00
1:35 AM,68.5,65.5,90,29.84,7.0,Calm,Calm,-,N/A,,Overcast,0,2013-01-09 07:35:00
2:15 AM,68.0,65.3,91,29.84,7.0,Calm,Calm,-,N/A,,Overcast,0,2013-01-09 08:15:00
2:35 AM,67.5,65.3,93,29.84,7.0,Calm,Calm,-,N/A,,Overcast,0,2013-01-09 08:35:00
3:15 AM,67.1,65.3,94,29.84,5.0,South,4.6,-,N/A,,Overcast,190,2013-01-09 09:15:00
3:35 AM,66.9,64.9,93,29.85,7.0,SW,5.8,-,N/A,,Overcast,230,2013-01-09 09:35:00
3:55 AM,63.0,60.6,92,29.85,10.0,West,11.5,-,N/A,,Overcast,280,2013-01-09 09:55:00
4:15 AM,61.7,59.4,92,29.85,10.0,WNW,10.4,16.1,N/A,,Overcast,290,2013-01-09 10:15:00
4:35 AM,61.5,59.0,91,29.83,10.0,NW,9.2,-,N/A,,Overcast,310,2013-01-09 10:35:00
4:55 AM,61.7,59.0,91,29.86,10.0,NW,3.5,-,N/A,,Overcast,310,2013-01-09 10:55:00
5:15 AM,61.9,59.0,90,29.86,10.0,Calm,Calm,-,N/A,,Overcast,0,2013-01-09 11:15:00
5:35 AM,62.1,59.2,90,29.86,10.0,Calm,Calm,-,N/A,,Overcast,0,2013-01-09 11:35:00
5:55 AM,62.1,59.4,91,29.86,10.0,Calm,Calm,-,N/A,,Overcast,0,2013-01-09 11:55:00
6:15 AM,61.7,59.4,92,29.91,7.0,WSW,15.0,-,0.02,,Overcast,250,2013-01-09 12:15:00
6:35 AM,59.0,57.2,94,29.91,7.0,West,16.1,27.6,0.05,,Overcast,280,2013-01-09 12:35:00
6:55 AM,58.5,56.7,94,29.90,7.0,WNW,12.7,18.4,0.09,,Overcast,290,2013-01-09 12:55:00
7:15 AM,58.3,56.7,94,29.89,7.0,NW,10.4,-,0.03,,Overcast,320,2013-01-09 13:15:00
7:35 AM,58.5,57.0,95,29.88,10.0,NW,11.5,-,0.04,,Overcast,320,2013-01-09 13:35:00
7:55 AM,59.0,57.4,94,29.90,10.0,NNW,10.4,-,0.04,,Overcast,330,2013-01-09 13:55:00
8:15 AM,59.4,57.9,95,29.93,10.0,NNW,4.6,-,N/A,,Overcast,330,2013-01-09 14:15:00
8:35 AM,59.7,58.1,94,29.97,5.0,NW,4.6,-,0.02,,Overcast,310,2013-01-09 14:35:00
8:55 AM,59.5,58.1,95,29.98,10.0,North,4.6,-,0.04,,Overcast,360,2013-01-09 14:55:00
9:15 AM,59.0,57.4,94,29.94,5.0,North,10.4,-,0.03,,Overcast,360,2013-01-09 15:15:00
9:35 AM,58.6,57.2,95,29.92,7.0,NNE,10.4,-,0.06,,Overcast,30,2013-01-09 15:35:00
10:15 AM,59.2,57.6,94,29.92,10.0,Calm,Calm,-,N/A,,Mostly Cloudy,0,2013-01-09 16:15:00
10:35 AM,59.2,57.7,95,29.97,10.0,WSW,5.8,-,N/A,,Mostly Cloudy,250,2013-01-09 16:35:00
10:55 AM,59.2,57.9,96,30.00,10.0,SW,4.6,-,0.01,,Overcast,230,2013-01-09 16:55:00
11:15 AM,59.7,58.3,95,29.96,10.0,West,4.6,-,N/A,,Overcast,270,2013-01-09 17:15:00
11:55 AM,59.0,57.2,94,29.95,10.0,West,4.6,-,N/A,,Overcast,270,2013-01-09 17:55:00
12:15 PM,59.2,57.4,94,29.94,10.0,West,5.8,-,N/A,,Overcast,280,2013-01-09 18:15:00
12:35 PM,60.1,57.7,92,29.95,10.0,West,5.8,-,N/A,,Overcast,270,2013-01-09 18:35:00
12:55 PM,61.0,57.6,88,29.94,10.0,West,6.9,-,N/A,,Overcast,270,2013-01-09 18:55:00
1:15 PM,61.7,58.1,88,29.93,10.0,West,8.1,-,N/A,,Overcast,270,2013-01-09 19:15:00
1:35 PM,61.7,58.1,88,29.93,10.0,West,4.6,-,N/A,,Overcast,270,2013-01-09 19:35:00
2:15 PM,62.6,58.3,86,29.91,10.0,West,5.8,-,N/A,,Overcast,280,2013-01-09 20:15:00
2:35 PM,63.5,58.5,84,29.91,10.0,West,8.1,-,N/A,,Overcast,270,2013-01-09 20:35:00
2:55 PM,64.9,59.0,81,29.91,10.0,WNW,8.1,-,N/A,,Overcast,300,2013-01-09 20:55:00
3:15 PM,65.1,59.0,81,29.92,10.0,WNW,10.4,-,N/A,,Overcast,290,2013-01-09 21:15:00
3:35 PM,65.5,58.8,79,29.93,10.0,WNW,3.5,-,N/A,,Mostly Cloudy,290,2013-01-09 21:35:00
3:55 PM,65.5,58.5,78,29.94,10.0,West,4.6,-,N/A,,Scattered Clouds,280,2013-01-09 21:55:00
4:15 PM,65.8,58.5,77,29.95,10.0,Calm,Calm,-,N/A,,Clear,0,2013-01-09 22:15:00
4:35 PM,66.4,59.2,78,29.95,10.0,North,4.6,-,N/A,,Clear,350,2013-01-09 22:35:00
4:55 PM,67.1,59.2,76,29.95,10.0,NNW,3.5,-,N/A,,Clear,340,2013-01-09 22:55:00
5:15 PM,67.5,59.5,76,29.95,10.0,North,3.5,-,N/A,,Clear,350,2013-01-09 23:15:00
5:35 PM,66.9,59.4,77,29.96,10.0,North,5.8,-,N/A,,Clear,10,2013-01-09 23:35:00
6:15 PM,64.2,59.2,84,29.98,10.0,East,4.6,-,N/A,,Clear,80,2013-01-10 00:15:00
6:35 PM,63.0,59.0,87,29.99,10.0,East,3.5,-,N/A,,Clear,90,2013-01-10 00:35:00
7:15 PM,61.0,58.1,90,30.02,10.0,ESE,4.6,-,N/A,,Clear,110,2013-01-10 01:15:00
7:35 PM,60.6,57.9,91,30.01,10.0,Calm,Calm,-,N/A,,Clear,0,2013-01-10 01:35:00
7:55 PM,59.5,57.2,92,30.01,10.0,Calm,Calm,-,N/A,,Clear,0,2013-01-10 01:55:00
8:15 PM,58.3,56.5,94,30.01,10.0,Calm,Calm,-,N/A,,Clear,0,2013-01-10 02:15:00
8:35 PM,57.4,56.1,96,30.02,10.0,Calm,Calm,-,N/A,,Clear,0,2013-01-10 02:35:00
8:55 PM,56.7,55.4,96,30.02,10.0,Calm,Calm,-,N/A,,Clear,0,2013-01-10 02:55:00
9:15 PM,55.8,54.5,96,30.03,7.0,Calm,Calm,-,N/A,,Clear,0,2013-01-10 03:15:00
9:35 PM,54.9,53.6,96,30.03,7.0,ESE,3.5,-,N/A,,Clear,120,2013-01-10 03:35:00
9:55 PM,54.7,53.6,96,30.03,10.0,Calm,Calm,-,N/A,,Clear,0,2013-01-10 03:55:00
10:15 PM,55.0,54.0,96,30.05,7.0,Calm,Calm,-,N/A,,Clear,0,2013-01-10 04:15:00
10:35 PM,54.9,53.8,96,30.05,7.0,Calm,Calm,-,N/A,,Clear,0,2013-01-10 04:35:00
11:15 PM,53.6,52.7,97,30.04,1.5,SW,3.5,-,N/A,,Unknown,220,2013-01-10 05:15:00
11:35 PM,52.7,51.8,97,30.05,0.8,South,4.6,-,N/A,,Unknown,180,2013-01-10 05:35:00
11:55 PM,52.7,51.8,97,30.05,0.8,SW,3.5,-,N/A,,Unknown,230,2013-01-10 05:55:00